Wind_Speed
67 58 56 59 62 63 64 64 63 62 62 62 61 60 57 55 54 50 41 35 32 30 29 29 30 30 29 29 30 31 31 32 33 34 35 37 39 40 39 37 36 37 37 36 35 32 31 32 32 31 30 30 29 28 28 29 30 30 30 30 29 29 29 29 29 29 28 28 28 29 31 33 33 32 31 30 30 29 28 26 24 23 22 21 20 20 18
68 60 56 59 61 60 61 64 65 63 63 63 61 59 57 55 53 48 40 35 33 31 31 32 31 31 31 31 32 30 29 28 29 29 28 31 36 41 41 39 38 38 38 36 34 33 32 33 33 33 31 31 30 28 27 28 29 30 30 30 30 29 29 29 30 30 30 30 30 30 31 33 32 32 31 31 30 29 27 26 25 23 22 21 21 20 18
69 63 58 59 60 58 58 62 66 65 63 62 60 58 57 55 52 45 39 38 37 35 35 35 34 34 34 34 32 29 25 24 23 23 24 27 33 39 41 40 39 39 38 36 35 34 33 32 33 33 32 30 29 28 28 28 28 30 30 30 30 29 29 30 31 31 31 31 31 31 32 32 32 32 32 31 30 29 27 26 25 23 22 21 21 20 18
69 65 59 59 59 56 56 60 64 65 63 60 59 58 57 56 51 43 41 41 40 39 39 39 38 37 35 34 32 27 23 21 20 21 23 26 31 37 40 40 39 38 36 35 37 35 31 32 34 34 32 31 29 29 29 28 29 30 30 30 30 30 30 31 31 30 31 31 32 32 32 32 32 32 32 31 29 28 27 26 25 23 22 21 21 20 19
67 66 62 59 56 53 55 59 61 64 64 61 59 59 57 56 52 46 44 44 42 41 42 42 39 37 36 34 32 28 24 21 20 22 24 26 30 34 37 38 38 36 34 35 38 34 31 32 33 32 31 29 28 29 30 30 30 29 29 28 29 30 31 31 30 30 31 32 32 32 32 32 32 32 31 29 28 28 27 27 25 23 22 22 21 20 20
64 66 64 59 54 51 55 59 60 62 65 62 60 60 58 56 52 47 46 45 43 43 43 41 39 37 36 35 33 31 28 24 22 23 25 27 30 32 34 36 37 34 32 33 35 33 31 32 32 31 30 29 29 31 32 31 31 30 29 29 29 31 31 31 31 32 32 32 32 32 32 31 31 31 29 28 28 28 28 26 24 23 23 23 22 21 20
60 65 65 60 56 53 54 58 60 61 64 63 62 61 58 55 52 49 49 48 45 45 44 42 39 37 37 37 37 35 33 28 25 25 27 29 29 30 32 35 36 35 34 34 33 32 33 34 33 32 31 31 31 32 32 32 32 31 31 31 31 32 32 32 32 32 32 32 32 31 31 31 30 29 28 28 28 28 27 26 24 24 24 23 22 22 21
56 62 64 62 59 54 52 56 60 62 63 63 63 61 58 54 51 50 51 49 46 46 46 43 40 38 39 40 40 39 36 32 28 26 27 28 29 29 30 34 37 37 36 34 33 34 35 34 34 32 31 31 32 33 33 33 32 32 32 32 32 32 32 32 32 32 32 31 31 31 30 29 29 27 27 27 27 27 26 25 25 25 24 23 23 23 23
55 59 62 62 60 54 51 55 60 62 63 63 63 61 57 54 51 50 52 51 48 47 47 45 42 40 41 42 42 41 38 34 31 28 26 26 28 29 30 34 38 39 37 35 34 35 36 35 35 34 32 32 34 35 34 33 31 31 31 31 32 31 31 31 31 31 31 30 29 28 27 26 26 26 26 26 26 27 26 26 25 25 25 24 25 25 25
53 56 59 62 61 55 52 53 57 63 64 62 62 61 58 54 52 50 51 51 49 48 48 47 44 42 43 43 43 43 41 37 34 31 26 24 26 28 31 35 38 38 37 37 36 37 38 38 38 36 34 34 35 36 34 32 31 30 29 29 30 30 30 31 31 30 29 29 27 26 25 25 25 26 26 27 27 28 28 27 27 27 27 27 26 26 26
51 55 58 61 61 58 54 50 51 60 64 62 60 60 58 54 51 50 51 51 50 49 49 49 47 44 44 44 44 44 42 39 37 35 30 25 25 28 32 36 38 38 37 38 39 39 40 40 40 39 38 35 35 35 34 33 31 29 28 28 28 28 29 29 28 27 27 27 26 25 25 25 25 26 26 27 28 28 28 29 29 29 29 28 28 27 27
50 54 57 60 62 60 56 48 45 53 62 62 59 58 57 55 52 52 52 52 51 50 51 52 50 46 45 45 45 45 44 41 39 36 32 27 24 25 32 37 38 39 38 37 38 39 39 39 40 40 40 36 34 34 34 32 31 29 28 28 27 27 28 27 26 25 25 26 26 25 24 24 24 25 25 26 26 27 27 29 29 29 29 29 29 29 29
50 53 56 61 64 61 57 50 43 46 57 62 59 57 57 57 54 53 54 53 53 52 52 53 51 48 48 48 47 47 44 41 39 36 32 29 24 23 31 39 40 39 38 36 36 37 37 37 39 39 39 35 32 32 33 31 29 28 29 29 28 27 27 26 25 26 26 26 25 25 24 23 22 22 22 23 23 24 25 27 28 28 29 29 29 30 31
50 53 56 62 66 63 56 49 44 45 54 60 60 59 58 57 55 55 55 55 55 54 53 53 53 51 52 52 50 47 45 41 39 35 32 31 27 25 32 40 41 40 39 37 36 37 36 36 37 37 35 33 31 31 31 30 29 29 29 29 29 28 27 26 26 26 26 26 25 24 24 23 21 21 21 21 21 21 22 23 24 26 27 27 28 29 31
50 53 58 63 67 64 57 49 44 48 55 59 60 60 59 57 56 55 56 56 56 56 55 54 54 55 55 54 51 48 46 43 40 36 33 32 29 27 33 42 43 42 41 39 37 37 36 35 36 35 33 32 31 32 32 32 32 32 31 31 32 31 30 28 28 29 28 27 27 27 26 25 24 23 22 21 21 20 20 19 20 21 24 25 26 27 28
52 54 60 65 67 66 61 52 46 50 56 57 59 62 61 59 58 57 57 57 57 58 57 55 56 58 57 55 53 50 48 46 42 38 35 34 30 28 35 44 46 44 44 42 39 38 37 36 35 34 33 32 33 35 35 35 35 35 34 35 35 34 33 32 31 31 31 30 30 30 29 29 28 27 26 25 23 22 21 20 18 18 20 23 24 24 25
55 56 61 66 67 67 66 59 49 48 54 57 60 63 63 61 60 60 58 58 59 58 57 56 56 59 59 57 55 53 50 48 46 42 38 36 31 30 37 45 47 46 45 44 42 40 39 37 35 34 33 32 33 36 37 37 37 37 37 38 38 37 36 34 33 32 32 31 31 30 30 30 30 30 29 28 27 26 24 23 20 18 18 20 23 24 24
56 58 62 65 67 67 67 63 51 44 51 58 61 64 65 63 62 62 60 60 61 59 57 56 56 57 59 59 58 57 54 51 48 45 41 37 34 33 39 46 48 48 47 45 43 42 40 37 35 34 33 33 33 35 37 39 41 41 41 40 41 40 39 37 36 35 33 33 32 31 31 31 32 32 31 30 30 29 27 26 24 22 21 19 20 22 24
57 61 63 64 65 66 67 65 53 42 50 62 65 65 66 64 64 65 62 61 63 61 58 58 59 58 58 59 58 58 56 54 51 47 43 40 38 37 39 44 47 48 47 45 43 41 38 34 32 32 32 33 33 35 37 39 41 43 45 45 44 44 43 42 41 39 38 37 37 36 36 35 35 34 33 33 32 31 31 30 28 27 26 23 21 21 22
57 62 63 61 63 66 67 67 58 45 49 63 68 67 68 67 65 66 65 62 63 64 61 59 59 59 59 57 56 56 57 55 52 49 46 43 41 39 40 42 44 45 45 43 40 38 36 34 33 33 33 34 36 38 38 38 38 40 45 48 49 49 49 48 46 45 44 42 41 41 41 40 39 39 38 37 36 35 34 34 33 32 31 29 27 25 24
55 60 61 59 61 65 67 69 65 51 45 59 69 69 69 69 67 67 68 65 63 64 63 60 59 60 60 59 55 54 56 57 54 51 49 47 44 42 42 43 44 44 43 42 39 38 37 36 36 36 37 38 39 40 40 40 39 39 42 46 49 51 51 49 48 48 47 45 44 44 44 44 44 44 43 41 40 39 38 37 36 35 34 34 32 31 30
49 55 59 59 60 64 67 71 72 59 45 50 65 70 70 70 69 67 68 66 63 62 62 61 60 60 59 59 56 54 57 61 59 54 52 51 47 45 44 44 46 46 45 43 41 40 38 36 35 36 37 39 39 40 40 41 41 41 42 43 46 48 49 47 46 47 47 46 45 46 47 48 48 48 47 46 45 43 42 41 40 38 37 37 37 36 34
43 49 56 59 59 62 66 70 74 68 52 44 55 66 71 70 69 68 67 66 63 62 62 62 62 61 59 57 55 53 56 62 62 56 54 53 51 48 46 45 46 47 47 45 43 41 38 35 34 34 35 35 36 38 39 40 42 42 43 43 44 45 46 46 46 46 46 46 47 48 49 50 50 50 49 49 48 46 45 45 44 43 41 40 41 40 38
39 44 52 57 59 61 65 68 71 73 66 51 46 56 67 71 71 68 66 65 64 62 61 62 63 63 60 58 55 53 54 57 58 56 54 53 52 50 48 47 46 47 46 45 43 41 38 36 34 33 33 32 33 34 36 38 39 40 42 43 44 45 46 46 47 47 47 48 49 49 50 50 50 50 49 49 48 48 47 47 47 46 45 45 44 43 41
34 41 48 54 58 60 64 66 67 71 73 64 50 44 52 64 71 71 66 63 63 64 62 62 63 64 62 59 57 56 54 54 54 54 53 53 53 52 50 48 47 46 46 45 43 41 38 36 34 33 32 32 32 32 33 34 36 38 40 42 43 45 46 47 48 48 49 49 50 50 51 51 50 50 49 49 48 48 48 48 48 47 47 46 45 44 43
28 35 42 49 55 59 62 64 66 68 72 71 62 47 39 44 58 69 69 63 61 64 65 64 65 65 64 61 59 57 56 55 54 53 52 51 52 52 51 49 47 46 46 45 43 42 39 37 35 34 33 33 33 32 32 32 33 35 37 40 42 43 45 46 47 48 48 49 49 49 49 49 49 48 47 46 45 45 45 45 44 44 43 43 42 43 43
21 28 35 41 49 56 59 62 65 68 70 71 70 61 47 37 40 54 66 66 63 63 65 67 68 67 64 63 62 60 58 56 54 52 51 51 52 51 52 51 49 48 47 45 44 42 40 38 37 37 36 36 35 33 32 32 32 33 35 37 39 40 41 42 44 44 45 45 45 45 45 44 44 43 42 41 39 38 38 38 38 38 38 38 38 39 40
17 23 28 34 41 48 53 59 65 68 69 71 71 68 62 53 42 41 50 59 63 65 65 65 68 68 66 64 63 61 60 59 57 53 52 52 52 51 51 50 50 49 48 47 46 44 43 41 40 39 39 38 37 35 33 32 33 34 35 36 37 37 37 37 38 39 40 40 40 41 41 40 40 40 39 38 37 36 36 35 35 35 35 35 35 36 37
16 20 23 26 32 39 44 52 61 65 66 70 72 70 67 65 57 45 40 42 50 59 64 67 69 68 66 65 65 63 62 62 60 57 55 54 53 52 51 51 50 49 49 49 48 46 45 44 43 42 41 40 39 37 36 35 35 34 35 36 37 37 36 35 35 36 37 37 38 38 39 39 39 40 39 39 39 38 38 37 37 36 36 36 36 37 38
18 20 20 20 24 31 36 44 54 60 61 65 70 71 69 67 65 59 49 41 39 42 49 60 69 71 67 65 65 65 66 66 63 60 58 57 57 55 54 53 53 53 53 52 50 48 46 45 45 45 44 43 42 40 38 37 36 36 35 36 37 38 38 37 36 35 35 36 36 37 38 39 40 40 41 41 41 40 39 39 38 38 38 38 39 40 40
21 22 23 21 22 26 31 38 46 51 54 58 63 67 69 68 67 66 62 56 49 41 36 43 56 65 68 68 67 66 66 67 66 64 63 62 61 60 58 56 57 59 59 56 53 50 49 49 48 48 47 46 45 43 41 39 37 36 35 35 36 37 38 39 39 38 37 36 36 36 37 38 39 40 41 41 41 40 39 39 40 41 41 42 42 41 41
23 24 26 27 26 26 28 33 38 43 47 51 53 57 62 65 66 67 67 65 63 57 47 39 41 47 55 62 66 67 68 69 67 66 67 67 66 65 62 58 58 59 59 56 54 52 52 52 51 51 51 49 47 45 43 42 40 38 35 34 35 35 35 37 39 40 40 39 38 38 38 38 39 39 40 41 41 41 40 40 42 43 42 41 42 41 40
24 26 28 30 32 32 32 33 35 38 40 42 44 48 53 56 58 62 67 67 67 65 60 52 47 45 46 48 50 54 61 68 70 69 72 73 71 68 65 62 60 60 60 58 56 55 55 55 55 54 53 52 51 49 47 45 43 41 38 36 34 34 33 33 35 38 40 40 40 39 40 40 40 40 41 41 41 42 42 42 44 44 41 40 40 40 39
18 23 27 31 33 36 37 37 38 38 39 40 41 44 46 47 47 52 59 63 65 65 65 64 62 60 57 53 46 43 48 56 60 63 68 72 73 70 67 64 63 64 64 64 62 60 59 59 59 58 57 55 54 52 50 48 46 45 42 40 39 37 35 34 34 35 37 39 40 40 40 40 41 41 42 42 43 43 43 45 47 47 45 43 43 42 41
12 16 21 27 31 34 38 40 42 43 44 45 45 45 46 46 45 46 49 53 55 56 60 64 67 68 67 64 59 54 50 48 46 46 49 52 58 63 67 68 67 67 67 67 66 66 65 63 61 61 60 59 57 55 53 51 50 49 47 46 45 44 42 39 37 36 36 37 38 40 41 41 41 42 42 43 44 45 45 46 48 49 48 47 46 45 44
8 10 14 19 24 29 33 38 42 45 47 49 50 51 52 52 51 50 50 50 50 50 52 56 62 66 69 69 68 66 63 61 56 51 45 41 42 47 53 59 64 68 71 72 70 67 65 66 65 63 62 60 59 58 57 55 54 53 52 51 50 50 48 46 43 41 39 38 38 39 42 43 43 43 44 45 45 46 47 47 48 49 49 49 48 48 47
8 9 11 15 18 23 27 32 37 41 44 47 51 53 54 56 57 57 56 55 54 53 52 52 54 59 63 66 69 69 68 68 67 65 61 55 49 44 43 44 47 51 59 68 72 69 64 63 64 65 65 64 63 62 60 59 58 57 56 54 53 52 51 50 48 47 45 43 41 41 42 44 45 45 46 46 47 48 49 49 50 50 51 51 50 50 50
11 11 13 15 18 21 23 26 29 33 37 42 46 49 51 54 56 59 60 60 60 59 57 55 54 55 56 58 60 64 66 67 68 68 67 66 64 61 55 50 47 45 46 50 58 64 66 65 64 63 63 64 65 64 62 61 60 59 58 56 54 53 52 51 50 49 49 48 47 45 44 45 47 47 47 47 48 48 49 50 51 51 52 52 52 52 52
13 13 15 18 20 22 24 24 25 27 30 34 38 42 46 47 50 54 57 59 60 61 61 61 59 58 58 57 57 58 60 61 63 64 65 64 65 66 64 61 60 59 55 50 48 50 55 59 60 58 57 57 59 61 62 61 59 58 56 55 53 53 52 52 51 51 49 48 48 47 47 47 48 49 49 49 49 49 50 50 51 51 52 52 53 54 54
12 13 16 19 23 24 26 26 26 26 27 29 31 35 39 42 44 47 50 54 56 58 60 62 63 63 62 62 62 61 61 60 60 61 62 61 60 60 60 59 59 60 61 60 57 54 52 51 51 51 51 51 53 54 57 57 57 56 55 54 54 53 53 52 51 50 49 48 47 47 47 48 48 49 50 51 51 51 51 52 52 53 53 54 54 55 56
13 13 14 17 21 24 26 28 28 27 27 28 29 30 33 36 38 40 43 48 52 54 56 59 63 65 66 67 66 66 65 64 63 62 63 63 62 61 61 60 60 60 61 62 62 62 61 59 55 52 52 52 51 51 52 54 55 55 55 55 54 53 52 52 50 49 48 47 45 45 46 47 48 49 50 51 52 52 53 53 54 55 55 56 57 57 58
14 14 13 13 16 18 21 25 27 27 27 27 27 28 30 32 34 35 36 39 43 45 47 50 54 59 63 67 69 69 69 69 67 65 64 64 65 66 65 65 64 64 64 64 64 64 64 64 62 59 58 56 55 54 53 53 54 54 55 56 56 55 53 52 51 49 47 45 44 43 43 44 46 48 50 51 52 53 54 56 57 58 58 59 60 60 61
14 14 13 12 12 13 15 18 22 24 24 24 25 26 28 30 32 34 35 36 38 40 41 41 42 45 50 56 62 66 69 70 70 69 68 67 67 69 69 69 68 67 66 66 66 65 65 64 63 62 61 60 59 59 58 56 55 55 55 55 56 56 55 54 52 51 49 47 46 45 45 46 48 50 52 53 55 57 58 59 61 61 62 63 63 64 65
13 14 14 13 12 12 12 14 17 20 22 22 21 22 24 26 29 31 32 33 34 36 37 37 35 35 36 40 46 53 58 62 65 68 70 71 71 72 72 73 72 71 69 68 66 66 65 64 63 61 59 58 58 58 59 59 58 58 57 56 57 57 57 57 56 55 54 53 52 50 51 52 53 54 55 56 57 59 61 62 64 65 66 66 66 66 65
13 13 13 13 13 13 12 12 14 17 19 20 19 19 21 22 24 26 27 27 28 29 30 30 30 29 29 29 31 35 41 47 53 58 64 67 70 72 74 74 73 72 71 70 69 67 66 65 64 62 61 59 57 56 56 57 58 59 59 59 59 59 58 58 58 58 58 57 56 55 56 57 58 58 59 60 60 61 61 62 63 63 64 64 64 64 63
14 13 13 12 13 13 13 13 13 14 17 19 19 18 18 19 20 21 22 23 24 24 24 25 25 25 25 24 24 25 28 32 37 43 51 57 62 67 70 71 72 72 71 71 70 69 68 67 66 64 63 61 59 58 57 57 58 60 62 62 62 61 60 59 59 59 59 59 59 60 61 61 61 62 62 62 62 61 61 60 60 61 62 63 63 63 62
15 14 14 13 12 13 14 14 13 14 15 18 20 20 19 18 19 20 22 23 22 21 21 21 23 23 23 22 21 22 23 24 25 29 36 43 50 56 61 64 67 68 69 70 71 71 70 70 69 69 68 66 65 63 61 60 60 62 64 65 67 67 65 63 63 62 62 62 63 65 65 65 65 65 66 65 64 63 63 63 64 65 65 64 63 61 59
16 15 15 14 13 13 13 14 14 15 15 16 18 21 21 19 18 19 22 24 24 22 20 19 20 23 23 23 22 22 22 22 20 20 24 29 35 40 45 51 57 62 66 68 69 70 72 72 72 70 70 70 69 68 66 66 66 66 67 68 69 69 69 69 67 66 66 66 66 67 68 68 69 69 67 66 65 65 64 64 64 64 63 61 59 57 55
18 16 16 15 15 14 13 13 14 15 15 15 16 18 20 19 17 16 18 22 24 23 19 17 17 20 22 23 23 23 23 21 19 17 16 17 21 24 26 29 35 42 50 56 60 64 69 73 75 74 73 74 74 72 70 68 67 66 68 70 71 70 70 70 69 69 68 68 69 69 71 72 72 70 67 65 64 62 60 58 57 55 54 52 51 50 49
19 18 17 16 16 15 15 14 13 14 15 15 15 15 17 18 17 16 16 19 21 21 18 15 14 16 18 19 20 21 21 21 19 18 16 14 19 27 30 29 27 28 32 37 42 45 49 53 56 58 61 66 70 72 71 68 64 63 65 70 73 73 72 72 72 71 72 72 72 73 74 75 74 71 66 62 60 58 56 55 54 52 51 51 53 55 56
20 19 18 17 16 16 16 15 14 13 13 14 15 16 16 17 17 18 18 19 19 19 18 16 15 14 15 17 18 20 21 20 19 19 19 17 21 30 36 36 33 33 36 39 41 43 43 44 45 46 48 51 55 59 63 64 64 64 67 71 75 76 76 76 76 77 77 77 77 77 75 73 71 69 64 60 57 57 57 58 60 61 62 63 64 64 64
18 19 19 18 17 16 16 16 16 15 14 14 14 15 16 16 17 17 19 20 20 19 19 19 18 17 17 17 18 19 21 21 20 19 19 18 20 26 30 31 31 34 39 41 41 41 42 44 46 49 50 50 51 52 55 57 59 61 65 69 72 74 75 76 78 78 78 78 77 75 73 69 67 65 61 58 57 58 60 62 64 66 67 66 65 64 64
Wind_Direction
204 202 200 202 205 204 203 205 207 208 209 211 213 214 215 216 215 214 208 194 189 191 190 191 199 202 202 203 205 206 206 209 212 213 213 211 204 200 198 197 200 204 207 212 216 215 212 205 200 197 196 197 200 203 206 208 208 208 207 205 205 206 206 206 208 210 210 210 210 210 208 207 207 207 205 204 205 207 209 211 213 214 218 223 229 232 235
205 201 199 201 204 204 203 205 207 208 209 211 213 214 215 217 216 214 205 192 182 182 187 190 193 196 197 199 204 207 207 211 216 218 216 215 211 205 198 195 197 200 204 210 214 214 212 207 200 197 197 199 202 204 206 206 205 205 205 204 204 204 205 207 209 210 210 208 206 206 206 207 208 207 206 206 206 208 209 211 212 214 218 224 228 231 233
206 202 199 199 202 203 204 206 207 207 208 210 212 214 215 217 217 213 204 191 180 182 189 190 190 194 197 201 206 206 205 206 212 217 214 211 212 208 199 193 195 199 204 210 215 215 213 208 201 197 199 200 202 205 205 204 203 202 202 202 202 203 204 207 209 210 209 206 202 202 203 206 208 208 208 208 208 209 210 211 213 216 220 223 227 230 232
208 203 199 198 200 203 206 207 207 208 208 209 211 213 214 215 215 211 204 195 185 184 188 188 190 195 198 203 206 201 197 199 205 210 207 204 207 208 200 193 194 199 203 209 215 215 213 209 203 198 199 200 203 205 204 203 202 200 200 200 200 202 204 206 208 208 207 203 199 200 203 206 209 210 210 210 209 209 210 212 215 217 220 223 226 229 233
211 204 200 198 198 203 207 207 207 208 208 208 210 212 212 213 213 210 206 200 189 185 186 185 189 195 198 202 203 196 192 197 204 209 207 204 206 208 204 198 197 199 202 208 215 214 212 210 205 200 200 200 202 204 203 204 203 199 198 198 199 201 203 204 204 203 202 200 200 202 205 209 211 212 212 212 211 211 211 213 216 217 219 222 225 229 234
213 206 201 197 197 202 207 207 207 208 208 207 209 211 212 212 211 210 207 202 191 186 186 185 187 193 195 197 197 193 191 196 203 209 210 208 207 207 206 203 200 199 202 208 211 209 207 206 202 199 199 198 199 202 202 203 202 199 197 197 198 201 202 201 201 200 200 200 202 205 208 211 213 214 214 214 212 212 213 215 217 218 221 223 225 229 234
214 207 201 198 198 201 205 206 207 208 208 207 208 210 211 211 210 208 207 204 195 189 188 187 187 190 190 191 191 190 190 194 201 208 209 206 204 202 203 203 201 200 203 206 204 201 200 199 198 198 198 197 199 200 201 202 202 200 198 197 198 200 201 200 200 201 202 203 205 208 210 212 214 214 214 213 213 213 215 217 218 219 222 224 227 230 234
213 207 202 200 199 199 203 207 208 208 208 207 208 210 211 211 209 207 207 205 198 192 190 188 186 186 185 185 186 187 189 193 198 203 203 201 197 194 196 199 198 198 202 203 201 200 199 197 198 199 199 198 199 199 201 202 202 200 200 199 199 200 200 201 202 203 204 205 207 209 211 212 213 214 213 213 214 216 218 219 220 221 223 225 228 232 236
212 207 202 200 198 198 201 206 208 209 208 207 207 209 210 210 209 207 207 205 200 194 191 188 185 182 180 180 183 186 189 192 196 199 200 199 195 190 189 191 191 193 198 201 202 203 202 201 202 203 201 199 199 200 201 203 203 202 201 201 201 201 201 202 203 204 205 206 207 208 209 211 212 213 214 215 216 218 219 220 220 222 223 225 228 232 236
211 207 203 199 197 197 199 204 209 211 209 206 207 208 209 209 208 207 206 205 201 195 191 188 186 181 179 180 183 188 191 193 195 197 198 200 199 195 191 190 190 192 196 199 203 204 205 205 205 205 204 203 202 201 202 204 205 204 202 203 203 202 201 203 204 204 204 204 204 204 206 209 211 214 215 216 218 219 220 221 221 222 224 225 227 231 236
208 205 203 197 195 196 197 201 210 213 210 207 207 208 209 208 207 206 205 204 202 196 191 190 187 183 183 184 187 191 195 195 196 197 197 200 202 199 197 194 191 192 196 199 203 207 208 208 207 205 206 206 204 203 203 205 207 205 201 201 201 200 200 202 203 202 201 200 201 203 207 210 212 216 218 220 223 224 225 226 226 227 228 228 229 231 235
206 204 201 196 194 195 196 200 211 215 212 209 207 207 208 207 205 205 204 202 201 197 192 191 190 189 189 189 191 195 198 198 198 198 198 200 202 201 199 194 187 190 197 201 205 209 211 210 207 206 207 207 205 203 204 205 206 203 198 197 197 197 197 199 199 197 196 197 200 203 207 211 214 218 221 224 227 229 231 232 233 233 234 233 233 233 234
205 202 199 194 194 195 196 202 212 214 211 210 208 208 208 206 204 205 204 202 201 198 193 192 194 194 194 194 195 197 200 200 200 200 200 201 204 203 199 192 186 190 197 200 202 207 209 207 206 207 208 209 208 205 204 205 204 200 196 195 194 195 196 198 197 196 196 198 201 203 206 210 215 220 224 227 228 231 233 235 236 237 237 236 235 235 235
203 201 197 193 194 196 198 205 213 214 211 209 207 207 207 206 205 205 204 202 201 199 195 194 196 197 198 198 198 198 200 202 202 203 204 204 205 206 201 193 188 192 199 201 201 205 207 206 206 208 209 211 210 207 205 204 202 200 198 195 194 196 199 200 200 200 202 202 203 206 209 212 216 221 227 230 230 231 234 237 238 239 238 238 237 237 238
199 199 196 195 197 197 197 203 209 210 210 209 206 206 207 206 206 207 205 203 202 200 198 196 197 199 200 200 200 199 200 203 204 205 206 206 206 207 203 196 191 193 201 205 205 207 209 209 209 209 210 210 210 208 206 203 202 202 200 197 196 197 199 201 203 203 204 206 207 210 213 216 220 223 227 232 235 237 241 243 245 245 242 241 241 241 241
197 197 197 197 199 197 197 202 205 203 206 207 203 204 207 206 206 208 207 205 203 202 200 198 199 201 201 201 202 201 201 204 206 206 207 208 209 208 202 196 193 196 203 207 209 210 212 212 210 209 210 210 209 208 207 205 204 203 202 199 198 198 199 202 207 207 207 209 213 215 217 219 222 226 228 230 233 238 243 247 252 253 247 242 242 242 243
196 197 198 199 200 198 199 205 205 199 201 204 201 202 206 206 205 207 208 206 205 205 203 200 200 203 204 204 205 205 205 206 207 207 208 209 208 205 200 196 194 198 204 208 210 213 215 215 213 212 210 210 210 210 209 208 206 204 204 203 202 201 201 204 209 211 211 213 216 218 221 224 226 230 232 233 234 235 237 242 248 254 253 247 241 239 240
196 197 200 202 203 201 201 206 208 200 197 201 201 201 204 205 205 206 208 207 207 207 206 203 202 203 205 207 208 207 207 208 208 207 207 208 205 201 199 197 196 200 205 208 210 212 215 216 216 216 215 213 213 214 214 213 209 205 204 205 204 203 203 206 210 213 214 215 217 220 223 227 229 232 235 237 239 238 237 238 242 247 252 252 245 239 237
198 199 203 206 206 203 202 206 212 204 193 195 199 200 201 204 205 205 207 208 208 208 208 207 205 205 206 208 210 209 209 209 209 206 205 205 202 200 200 199 199 203 207 209 211 213 215 215 215 216 215 213 214 215 217 219 217 210 206 206 206 206 206 208 210 212 214 216 218 221 223 226 230 232 235 238 240 241 241 241 240 242 245 248 246 242 239
202 201 205 208 208 205 203 205 211 207 190 188 195 198 200 203 204 204 206 209 209 210 211 210 208 207 207 208 209 209 209 208 207 204 202 201 201 201 201 200 201 204 207 208 210 213 214 214 213 212 210 209 210 212 215 219 222 218 212 210 209 210 213 214 212 212 213 215 218 221 223 226 228 231 233 236 238 240 242 243 243 242 242 243 243 242 242
204 205 207 210 209 208 206 206 210 211 196 187 191 196 199 202 205 205 206 207 209 210 211 212 211 210 210 209 209 211 211 208 204 201 199 200 201 201 203 202 202 205 207 208 211 214 214 213 213 212 211 210 210 212 214 217 220 221 219 217 215 217 220 221 217 213 213 215 219 222 225 227 229 230 232 234 235 237 239 242 243 244 244 244 243 243 243
203 207 210 211 211 211 210 209 211 214 206 192 191 194 199 203 206 207 207 206 207 208 210 211 212 211 211 210 211 214 213 208 204 202 199 199 200 201 202 204 205 207 209 210 212 213 212 212 212 213 213 214 214 214 215 217 220 222 223 223 222 222 224 224 220 217 217 219 222 225 228 229 230 231 232 234 235 236 238 240 242 244 246 246 247 247 246
200 207 211 213 213 213 213 213 214 216 214 202 192 193 199 203 206 209 208 206 206 208 209 212 213 213 213 212 212 214 210 203 202 202 199 199 201 201 202 204 206 208 210 211 211 212 211 212 213 214 215 216 217 217 217 219 221 223 224 226 226 226 226 227 226 225 225 225 226 228 231 233 234 235 236 237 238 239 239 240 241 242 244 247 249 250 249
199 206 211 214 216 216 215 216 218 219 219 214 200 194 198 203 207 211 211 209 209 210 211 212 213 213 213 213 214 216 211 203 199 200 200 199 201 202 202 204 206 208 209 210 211 211 212 213 215 216 217 219 219 219 219 220 221 223 224 226 227 228 229 230 231 232 233 232 232 233 235 237 238 240 242 243 243 243 244 244 244 244 244 246 248 250 251
200 207 212 215 218 219 218 219 220 221 221 221 216 204 199 202 207 211 213 212 212 213 213 214 215 215 214 212 213 216 216 209 203 203 204 203 203 204 204 205 206 208 210 211 211 212 214 216 219 221 223 224 222 221 220 220 222 223 224 225 227 228 229 230 232 234 235 236 237 238 239 241 243 245 246 247 247 246 246 246 247 247 247 247 248 249 250
204 208 214 217 220 222 222 222 223 223 223 223 223 218 210 205 207 210 214 214 213 214 216 216 216 217 217 214 213 216 217 213 207 205 207 207 207 207 207 207 209 210 212 213 214 215 217 220 222 224 227 228 226 224 222 222 223 224 224 225 226 228 229 230 231 233 235 237 239 241 242 244 245 247 247 247 246 245 245 245 246 247 247 247 247 248 249
208 210 215 220 222 224 227 226 225 226 226 226 225 223 221 216 209 208 212 213 210 210 215 217 217 218 219 217 216 217 218 216 211 209 210 211 212 211 210 209 211 212 214 215 217 218 220 223 225 227 231 232 230 228 227 227 228 227 225 225 226 227 229 230 231 232 234 236 238 239 241 243 244 244 244 243 242 241 241 241 242 243 244 244 245 246 248
215 213 218 223 225 227 230 229 228 230 230 229 228 227 225 225 222 213 210 210 207 206 211 216 216 218 219 219 218 218 219 219 217 216 215 216 217 217 214 212 213 214 215 217 218 220 222 224 227 229 232 234 235 234 234 235 234 231 228 226 225 226 227 228 229 230 231 233 235 237 238 239 240 241 241 240 240 240 240 240 241 242 243 243 244 245 246
227 217 218 224 228 231 233 232 232 234 234 231 231 231 230 230 230 225 217 211 206 205 208 212 215 216 218 218 219 219 220 221 220 219 219 219 220 219 217 214 215 216 217 218 220 221 223 225 228 230 233 236 237 239 240 241 241 237 233 229 227 226 226 227 229 231 232 232 234 236 238 239 241 241 242 242 242 243 243 243 243 243 244 244 244 245 245
242 228 223 226 230 233 235 235 234 236 238 236 234 234 233 233 233 232 230 224 215 209 208 209 212 215 217 218 219 219 221 221 220 219 220 221 221 220 219 219 218 217 216 217 219 222 224 227 229 231 234 236 239 241 243 244 245 242 238 234 231 230 229 230 230 232 234 234 235 236 238 240 242 243 244 245 246 246 247 247 247 246 246 246 246 246 246
249 240 234 234 236 236 237 238 238 238 240 240 239 238 238 237 236 237 237 235 233 231 221 210 209 212 215 218 221 223 223 222 220 219 221 222 222 221 221 222 222 220 217 216 218 220 225 228 231 233 236 238 240 242 244 245 245 243 240 238 236 235 235 235 234 235 236 237 238 238 239 240 242 243 245 246 247 248 250 251 252 251 249 248 248 248 249
251 248 244 243 244 244 241 239 240 241 242 242 243 244 243 242 242 242 242 242 242 242 237 225 216 213 212 215 219 223 225 225 222 221 221 222 223 223 222 222 224 224 222 221 222 223 226 229 232 234 237 239 241 243 244 244 242 239 238 239 239 238 239 240 240 239 239 240 241 242 241 242 243 244 245 246 248 249 249 251 252 253 253 253 254 254 254
246 248 247 247 248 250 248 244 243 243 244 245 248 248 248 248 249 248 246 246 247 246 243 239 235 233 229 223 219 219 221 222 222 222 221 219 218 220 221 222 225 228 229 229 228 227 228 230 233 236 238 240 242 243 245 244 241 237 236 237 239 239 241 244 246 246 245 244 245 246 246 246 246 246 247 248 249 250 251 252 253 253 254 255 256 257 257
237 243 247 249 250 252 253 250 248 247 246 247 249 251 252 254 255 254 251 250 251 251 249 247 245 245 245 243 236 227 219 216 216 217 218 215 212 213 217 221 225 228 230 231 231 230 230 231 234 236 238 240 241 243 244 243 241 239 239 240 241 242 244 247 250 252 252 250 250 250 250 250 250 250 251 251 251 252 253 253 255 256 256 256 257 257 258
223 234 244 249 252 254 255 253 251 251 251 250 249 250 252 254 256 256 255 255 256 257 255 252 250 249 248 248 247 244 238 231 223 218 215 212 209 210 214 220 224 227 229 230 231 231 232 232 234 237 238 239 240 242 243 243 241 241 243 246 247 248 249 250 252 254 256 257 257 256 255 255 255 254 254 254 255 255 255 255 257 259 261 261 261 261 261
225 228 237 246 252 255 258 258 257 256 256 255 254 253 252 252 253 255 256 256 258 259 259 257 256 254 252 250 250 250 250 249 246 241 235 227 218 212 213 217 222 226 229 230 230 230 230 229 230 233 237 239 239 241 243 244 245 246 248 250 251 251 251 252 255 256 258 262 265 263 260 258 258 257 257 256 257 258 258 259 260 261 263 264 264 265 264
275 257 248 248 251 252 254 256 258 259 259 259 259 258 256 254 253 254 254 255 255 256 257 258 258 258 256 255 255 254 254 254 255 254 252 249 243 235 226 221 221 226 228 228 227 227 227 226 227 230 234 238 240 241 243 245 247 249 250 251 251 251 250 252 255 258 261 266 271 270 266 261 259 259 259 258 258 258 259 260 261 262 263 265 266 267 268
298 285 271 260 256 255 252 249 249 252 255 257 258 260 259 258 256 256 256 256 256 256 256 256 256 257 258 258 258 258 258 258 258 258 258 257 255 254 249 243 242 244 241 233 228 226 227 228 229 231 233 236 238 241 243 245 247 249 250 250 250 250 250 252 255 259 262 267 271 271 267 262 260 259 260 260 259 259 260 261 262 263 264 265 266 267 269
305 295 284 272 263 259 258 254 248 246 247 250 252 255 256 257 257 257 258 258 258 258 257 256 255 255 255 256 257 258 259 259 260 260 260 259 258 259 258 257 256 257 257 252 244 236 232 231 232 233 233 234 236 239 243 246 247 248 248 249 249 250 251 253 257 260 264 267 269 267 263 259 258 258 259 259 259 260 260 261 262 263 264 266 267 268 269
296 283 275 271 265 260 258 257 254 250 247 246 247 249 251 252 254 255 257 259 260 260 260 259 258 257 256 256 255 256 257 258 259 260 261 261 260 260 260 261 262 262 262 260 258 254 250 245 242 239 238 238 239 240 242 245 248 249 250 251 252 253 254 256 258 261 264 266 265 262 258 256 256 256 257 258 259 259 260 261 262 263 264 266 267 268 269
282 272 264 264 263 260 256 254 253 252 250 249 248 247 248 249 250 251 253 256 258 259 260 261 261 260 259 258 257 256 256 257 257 258 260 261 262 262 262 262 262 264 264 264 263 262 261 259 257 254 253 251 249 248 247 248 250 252 253 254 255 256 257 259 261 262 263 263 260 257 255 255 256 256 257 258 258 259 260 261 262 263 264 265 267 268 269
275 270 264 260 260 259 254 249 247 247 249 250 252 252 252 251 251 251 251 252 253 255 256 258 259 259 259 259 259 258 257 256 256 256 256 257 259 260 262 263 263 263 264 265 265 265 264 263 263 263 262 260 259 257 255 255 255 255 255 256 256 256 257 259 260 259 259 257 255 253 254 256 258 259 260 260 261 262 262 263 264 265 266 266 267 268 269
278 274 268 263 262 261 255 247 242 242 244 247 250 254 257 258 257 256 255 254 253 252 253 254 256 257 257 257 257 257 257 256 255 255 254 254 254 256 258 260 261 262 263 264 264 265 265 265 265 265 265 265 263 261 260 259 260 259 258 257 257 256 256 256 256 255 255 253 252 252 255 258 262 264 266 266 266 266 265 265 266 267 267 268 268 269 270
283 281 277 272 267 266 262 251 242 238 238 241 245 251 255 257 256 256 256 254 252 250 249 251 253 256 256 256 255 255 255 254 253 253 252 252 252 253 254 256 258 259 261 262 263 264 265 266 266 266 265 265 264 263 262 261 261 261 260 259 258 256 255 254 254 254 254 252 251 253 258 263 268 270 272 272 272 271 270 269 269 269 269 270 270 270 270
285 282 282 279 273 269 267 260 249 239 235 235 239 245 249 249 249 251 252 250 246 242 242 245 249 253 256 257 255 254 253 252 251 250 250 249 249 250 251 253 254 255 257 259 261 262 263 263 263 264 263 262 261 260 260 259 258 258 258 257 255 253 252 252 253 253 252 251 253 257 263 268 272 275 277 277 277 276 275 273 271 271 270 270 270 270 270
290 284 282 282 278 271 266 263 256 245 235 229 229 232 235 235 235 239 243 244 240 236 236 240 245 249 253 256 257 255 254 253 250 249 248 247 246 247 247 248 249 250 251 253 254 256 257 257 257 258 259 259 259 258 257 256 255 255 255 254 253 252 251 250 251 251 252 253 257 261 265 268 272 276 278 279 279 277 275 274 272 272 272 271 271 270 269
293 288 284 283 281 274 268 264 259 251 240 231 225 222 224 227 230 232 237 240 240 237 236 241 247 249 250 253 257 260 261 260 256 252 248 246 246 245 244 243 243 244 244 246 248 249 251 252 253 253 254 255 256 256 255 254 253 252 252 252 253 254 253 252 251 251 252 255 260 263 266 269 273 276 278 278 277 275 274 274 273 273 274 274 273 270 268
291 290 287 283 280 276 271 267 262 256 249 240 230 224 223 227 233 236 236 236 236 234 233 237 246 251 253 254 257 261 265 268 267 261 253 247 245 244 243 242 241 241 241 241 242 243 244 245 247 249 250 252 252 252 252 252 252 251 250 250 251 252 253 254 254 253 254 256 260 263 266 270 273 276 276 275 274 274 275 275 274 273 273 273 271 269 267
285 287 286 284 280 275 271 268 265 262 257 250 239 230 225 225 231 237 235 229 226 224 224 228 237 246 252 256 259 260 262 264 267 267 260 245 230 226 228 232 236 239 241 242 243 244 246 246 246 246 247 248 249 249 250 251 251 251 250 250 250 250 251 253 255 257 258 260 261 264 267 270 272 272 271 269 269 271 272 271 269 265 264 264 263 263 265
280 281 282 281 279 275 271 267 264 264 262 258 250 240 230 223 221 225 227 222 217 214 214 219 229 238 245 249 252 254 255 256 255 257 257 237 209 201 201 203 206 213 222 228 231 233 237 241 243 244 245 246 246 246 247 247 247 248 249 249 250 250 251 252 254 256 259 261 263 266 268 270 270 269 267 265 265 265 265 264 262 259 258 260 264 267 270
275 276 277 275 273 272 271 268 262 260 261 261 257 250 243 234 226 223 222 222 221 218 215 216 222 231 237 237 237 238 241 243 244 247 249 239 215 204 205 207 207 207 210 213 216 218 222 225 229 234 238 241 241 242 243 244 246 247 248 249 250 251 252 253 254 256 258 261 263 265 266 266 266 265 264 262 260 260 260 261 261 260 261 264 268 271 273
273 271 271 270 267 264 265 266 263 259 257 257 256 254 251 246 241 234 229 228 229 229 226 224 227 233 236 236 233 229 228 228 232 238 242 234 215 206 209 214 217 216 214 214 216 222 228 231 233 236 240 243 244 245 246 247 249 250 251 250 250 251 252 253 254 256 258 259 261 262 262 261 260 260 259 259 259 259 259 260 260 261 262 264 267 269 272
Height
5687 5692 5698 5703 5706 5712 5717 5721 5726 5732 5737 5741 5746 5751 5756 5761 5763 5768 5777 5785 5788 5791 5793 5794 5796 5799 5802 5805 5808 5811 5814 5817 5819 5821 5823 5826 5828 5830 5833 5837 5842 5846 5849 5852 5854 5857 5859 5860 5862 5864 5866 5868 5870 5872 5874 5876 5879 5881 5884 5886 5889 5891 5893 5895 5897 5899 5900 5902 5904 5906 5908 5910 5912 5915 5917 5919 5921 5923 5925 5927 5929 5930 5932 5933 5934 5935 5936
5682 5689 5694 5698 5703 5709 5714 5718 5723 5728 5733 5738 5743 5749 5754 5758 5762 5768 5776 5781 5785 5787 5788 5790 5793 5796 5799 5802 5804 5807 5810 5813 5815 5818 5821 5824 5826 5827 5829 5834 5838 5842 5846 5849 5852 5854 5856 5858 5860 5862 5864 5866 5868 5871 5873 5875 5877 5879 5882 5884 5886 5889 5891 5893 5894 5895 5897 5899 5901 5903 5906 5909 5911 5913 5915 5917 5919 5921 5923 5925 5926 5928 5930 5931 5932 5933 5934
5678 5685 5690 5694 5700 5707 5711 5714 5719 5724 5730 5736 5740 5745 5751 5755 5760 5768 5775 5778 5780 5782 5784 5786 5789 5792 5796 5799 5801 5805 5808 5811 5813 5815 5818 5820 5822 5824 5827 5831 5835 5839 5843 5846 5849 5851 5854 5856 5858 5860 5862 5864 5867 5869 5871 5873 5875 5877 5879 5882 5884 5886 5888 5889 5890 5892 5894 5897 5899 5901 5904 5907 5909 5911 5913 5915 5917 5919 5921 5923 5924 5926 5928 5929 5930 5931 5933
5672 5680 5686 5691 5696 5703 5707 5710 5715 5720 5726 5732 5736 5742 5747 5752 5758 5767 5772 5774 5775 5777 5779 5782 5786 5790 5793 5796 5799 5803 5806 5808 5811 5813 5815 5817 5820 5822 5825 5828 5832 5836 5840 5843 5846 5849 5852 5854 5856 5858 5860 5862 5864 5867 5869 5871 5873 5875 5877 5879 5881 5883 5884 5886 5888 5890 5893 5895 5897 5899 5902 5904 5907 5909 5911 5913 5916 5917 5919 5921 5923 5925 5926 5928 5929 5930 5931
5668 5677 5683 5688 5694 5698 5701 5705 5711 5716 5722 5728 5733 5738 5743 5748 5755 5762 5767 5769 5772 5774 5776 5780 5784 5787 5791 5794 5797 5801 5804 5807 5809 5811 5813 5815 5817 5820 5822 5825 5829 5833 5838 5841 5844 5847 5851 5853 5854 5857 5858 5860 5863 5865 5867 5869 5871 5873 5875 5877 5879 5880 5882 5884 5886 5888 5891 5893 5895 5898 5900 5902 5904 5907 5909 5912 5914 5916 5917 5919 5921 5923 5925 5926 5927 5928 5929
5664 5672 5679 5686 5690 5692 5695 5702 5708 5713 5718 5725 5730 5734 5739 5744 5751 5758 5763 5766 5770 5772 5774 5777 5781 5785 5788 5791 5795 5799 5803 5806 5808 5809 5810 5812 5814 5816 5819 5823 5827 5832 5836 5839 5842 5845 5849 5851 5853 5855 5856 5858 5860 5862 5864 5866 5868 5870 5872 5874 5876 5878 5880 5882 5884 5886 5889 5891 5894 5896 5898 5900 5903 5905 5908 5910 5912 5913 5915 5917 5919 5921 5923 5924 5925 5926 5927
5661 5668 5676 5682 5683 5686 5693 5699 5704 5709 5715 5721 5726 5731 5736 5742 5748 5754 5758 5763 5767 5770 5772 5775 5779 5783 5786 5789 5793 5797 5801 5803 5806 5807 5808 5810 5811 5813 5816 5820 5825 5830 5834 5837 5840 5843 5846 5848 5850 5851 5853 5855 5857 5859 5861 5863 5865 5868 5870 5872 5873 5875 5877 5880 5882 5885 5887 5890 5892 5894 5896 5899 5901 5904 5906 5908 5910 5911 5913 5915 5917 5919 5920 5921 5923 5924 5925
5657 5664 5671 5676 5679 5685 5692 5697 5702 5706 5711 5717 5723 5728 5733 5739 5744 5749 5754 5758 5763 5767 5769 5773 5777 5781 5784 5787 5791 5794 5797 5800 5804 5806 5807 5808 5810 5812 5815 5819 5824 5828 5832 5835 5838 5841 5844 5846 5847 5849 5851 5853 5855 5857 5859 5861 5863 5865 5867 5869 5871 5873 5876 5879 5881 5883 5886 5888 5890 5892 5895 5897 5900 5902 5904 5906 5908 5909 5911 5913 5915 5917 5918 5919 5921 5921 5922
5653 5660 5667 5673 5679 5685 5690 5694 5700 5703 5707 5713 5720 5725 5730 5735 5741 5745 5749 5754 5760 5764 5767 5771 5775 5778 5782 5785 5788 5791 5794 5797 5801 5804 5806 5807 5809 5811 5813 5817 5821 5825 5829 5833 5836 5839 5841 5844 5845 5847 5849 5850 5852 5854 5856 5859 5862 5864 5866 5868 5870 5873 5875 5877 5879 5882 5884 5886 5889 5891 5893 5896 5898 5900 5902 5904 5905 5907 5909 5911 5913 5914 5916 5917 5918 5919 5920
5650 5658 5664 5670 5677 5683 5687 5692 5697 5700 5705 5711 5716 5721 5726 5731 5736 5740 5745 5751 5756 5761 5765 5769 5772 5776 5779 5782 5785 5788 5791 5794 5798 5802 5804 5806 5808 5810 5812 5815 5818 5823 5827 5830 5833 5836 5838 5840 5842 5845 5847 5848 5850 5853 5855 5858 5861 5863 5865 5867 5869 5872 5874 5876 5878 5880 5883 5885 5887 5890 5892 5894 5896 5898 5899 5901 5903 5904 5907 5908 5910 5911 5912 5913 5915 5916 5917
5648 5655 5661 5668 5675 5680 5684 5690 5694 5697 5703 5708 5713 5718 5723 5728 5733 5737 5742 5747 5753 5757 5762 5766 5769 5773 5776 5779 5782 5785 5789 5792 5795 5799 5802 5805 5806 5808 5810 5813 5817 5821 5824 5827 5830 5832 5834 5837 5840 5842 5844 5846 5848 5851 5854 5857 5859 5862 5864 5866 5868 5870 5872 5874 5876 5879 5881 5884 5886 5888 5890 5892 5894 5895 5897 5899 5900 5902 5904 5906 5907 5908 5909 5911 5912 5914 5915
5645 5652 5659 5666 5673 5677 5682 5687 5691 5695 5700 5705 5711 5715 5719 5724 5730 5734 5738 5744 5749 5754 5758 5762 5766 5770 5773 5776 5779 5782 5786 5790 5793 5797 5800 5803 5805 5807 5809 5812 5815 5819 5821 5824 5827 5829 5832 5835 5838 5840 5842 5844 5847 5850 5853 5855 5858 5861 5863 5865 5867 5869 5871 5873 5875 5878 5880 5883 5885 5887 5889 5890 5892 5894 5895 5897 5898 5900 5902 5903 5904 5906 5907 5909 5910 5911 5912
5644 5651 5657 5664 5670 5676 5680 5684 5688 5692 5696 5702 5707 5711 5715 5721 5726 5730 5735 5740 5745 5750 5754 5759 5763 5766 5769 5772 5775 5779 5784 5788 5791 5795 5798 5801 5804 5806 5808 5811 5814 5817 5819 5822 5824 5827 5830 5833 5836 5838 5840 5843 5846 5849 5852 5855 5857 5860 5862 5864 5866 5868 5871 5873 5875 5877 5879 5881 5884 5886 5887 5889 5891 5892 5894 5895 5897 5898 5899 5900 5902 5903 5904 5906 5907 5907 5908
5643 5650 5656 5663 5668 5673 5677 5681 5686 5690 5691 5696 5702 5707 5712 5718 5723 5727 5731 5737 5742 5746 5751 5755 5759 5762 5765 5768 5772 5777 5781 5785 5789 5792 5795 5799 5802 5805 5807 5810 5813 5816 5818 5820 5823 5825 5828 5831 5834 5836 5839 5842 5845 5848 5851 5854 5857 5859 5861 5863 5865 5868 5870 5872 5874 5876 5878 5880 5882 5884 5886 5888 5890 5891 5892 5893 5895 5896 5897 5898 5899 5900 5901 5902 5904 5904 5905
5642 5648 5655 5660 5664 5669 5674 5678 5683 5685 5685 5690 5699 5705 5710 5716 5721 5724 5728 5733 5739 5743 5747 5751 5755 5757 5760 5765 5770 5774 5778 5782 5786 5789 5793 5796 5799 5803 5806 5808 5811 5814 5817 5819 5821 5824 5826 5829 5832 5835 5838 5841 5843 5846 5849 5852 5854 5857 5859 5861 5863 5866 5868 5870 5872 5874 5876 5878 5880 5882 5884 5886 5887 5889 5890 5891 5893 5894 5895 5896 5897 5898 5899 5900 5901 5902 5902
5640 5645 5651 5655 5660 5667 5671 5674 5678 5680 5681 5686 5695 5701 5706 5711 5716 5720 5725 5730 5735 5738 5742 5746 5750 5753 5756 5761 5767 5771 5775 5778 5782 5786 5790 5793 5797 5799 5802 5806 5809 5812 5815 5817 5820 5822 5825 5827 5830 5833 5836 5839 5841 5843 5846 5849 5851 5854 5856 5858 5861 5863 5865 5868 5870 5872 5873 5875 5877 5879 5881 5883 5884 5886 5887 5889 5890 5891 5893 5894 5895 5896 5896 5897 5898 5899 5900
5637 5642 5647 5652 5657 5663 5667 5669 5673 5677 5680 5684 5691 5696 5701 5706 5711 5715 5721 5726 5731 5734 5737 5742 5745 5749 5753 5757 5762 5767 5770 5774 5778 5782 5786 5790 5793 5796 5799 5803 5806 5809 5812 5814 5817 5820 5822 5825 5828 5831 5833 5836 5838 5841 5843 5846 5848 5851 5853 5855 5858 5860 5863 5865 5867 5869 5871 5873 5875 5876 5878 5880 5881 5883 5884 5886 5887 5889 5890 5891 5892 5893 5894 5894 5895 5896 5897
5635 5640 5644 5648 5653 5659 5663 5666 5670 5673 5676 5681 5687 5692 5697 5702 5707 5711 5716 5721 5725 5730 5734 5738 5741 5745 5748 5752 5756 5761 5765 5769 5773 5778 5782 5786 5790 5793 5796 5800 5803 5806 5809 5812 5815 5817 5820 5823 5826 5828 5830 5833 5836 5839 5840 5842 5844 5847 5850 5852 5855 5857 5860 5862 5865 5866 5868 5870 5872 5873 5875 5876 5878 5879 5881 5883 5884 5886 5887 5889 5890 5891 5891 5892 5892 5893 5894
5633 5637 5641 5644 5649 5656 5661 5664 5666 5670 5672 5675 5681 5688 5692 5697 5702 5707 5711 5716 5720 5725 5730 5734 5736 5740 5744 5747 5751 5756 5761 5765 5769 5773 5778 5782 5786 5789 5793 5797 5800 5803 5806 5809 5812 5815 5818 5820 5823 5825 5826 5829 5833 5836 5837 5838 5840 5842 5846 5848 5851 5853 5856 5858 5860 5863 5865 5867 5868 5870 5871 5873 5875 5876 5878 5879 5881 5882 5884 5885 5886 5888 5888 5889 5890 5890 5891
5630 5634 5638 5642 5647 5652 5658 5661 5663 5666 5668 5671 5675 5682 5687 5692 5696 5701 5706 5711 5715 5719 5725 5729 5732 5736 5739 5743 5748 5752 5756 5760 5764 5769 5773 5777 5781 5785 5789 5792 5796 5799 5802 5805 5809 5812 5814 5817 5820 5822 5824 5827 5829 5832 5834 5835 5837 5839 5842 5844 5847 5849 5851 5854 5856 5858 5860 5862 5864 5866 5867 5869 5871 5872 5874 5876 5877 5879 5880 5881 5882 5884 5885 5886 5887 5887 5888
5629 5632 5636 5639 5644 5649 5655 5658 5660 5662 5666 5669 5672 5677 5683 5687 5691 5695 5700 5705 5709 5714 5720 5725 5729 5732 5735 5739 5743 5747 5751 5755 5760 5764 5768 5773 5777 5781 5784 5788 5792 5795 5798 5802 5805 5808 5811 5813 5816 5818 5821 5823 5825 5827 5830 5832 5834 5836 5839 5841 5843 5845 5847 5849 5852 5854 5855 5857 5859 5861 5863 5865 5867 5868 5870 5871 5873 5874 5876 5877 5878 5880 5881 5882 5883 5884 5885
5628 5631 5634 5637 5642 5646 5651 5654 5656 5660 5664 5668 5671 5675 5679 5683 5687 5691 5695 5701 5705 5710 5715 5720 5725 5728 5731 5735 5739 5743 5745 5749 5754 5759 5763 5768 5773 5777 5780 5784 5787 5791 5794 5798 5801 5804 5807 5810 5813 5815 5817 5819 5821 5823 5826 5828 5830 5833 5835 5837 5839 5841 5843 5845 5847 5849 5851 5853 5855 5857 5858 5860 5862 5864 5865 5867 5869 5870 5872 5873 5874 5875 5877 5878 5879 5880 5881
5628 5630 5632 5636 5639 5643 5647 5651 5654 5657 5661 5666 5670 5674 5678 5681 5685 5688 5693 5698 5703 5706 5711 5716 5721 5725 5728 5732 5736 5739 5741 5744 5748 5754 5759 5764 5769 5772 5776 5780 5783 5787 5790 5793 5797 5800 5804 5807 5809 5811 5814 5816 5818 5820 5822 5825 5827 5829 5831 5833 5836 5838 5840 5841 5843 5845 5848 5849 5851 5853 5854 5856 5858 5859 5861 5863 5864 5866 5868 5869 5870 5871 5872 5873 5874 5875 5876
5627 5630 5632 5635 5637 5640 5644 5648 5651 5653 5658 5663 5667 5672 5677 5680 5683 5686 5691 5697 5702 5705 5709 5714 5718 5721 5725 5730 5733 5737 5741 5743 5746 5751 5756 5760 5765 5768 5772 5775 5779 5783 5786 5790 5793 5796 5800 5803 5806 5808 5811 5813 5814 5817 5819 5821 5823 5825 5828 5830 5832 5834 5836 5838 5840 5842 5844 5846 5847 5849 5850 5852 5854 5855 5857 5859 5860 5862 5863 5864 5865 5867 5868 5869 5869 5870 5872
5628 5630 5632 5634 5636 5638 5641 5644 5647 5650 5655 5660 5665 5669 5673 5677 5681 5685 5690 5696 5701 5704 5707 5711 5715 5718 5722 5727 5730 5735 5739 5742 5744 5748 5753 5757 5761 5765 5768 5772 5775 5779 5783 5786 5790 5793 5796 5799 5802 5804 5807 5809 5811 5813 5815 5817 5819 5822 5824 5826 5828 5830 5833 5834 5836 5838 5840 5842 5843 5845 5847 5848 5850 5851 5853 5854 5855 5857 5858 5859 5860 5861 5863 5864 5865 5866 5867
5628 5630 5632 5634 5635 5637 5638 5641 5645 5648 5652 5658 5663 5666 5670 5674 5678 5683 5687 5692 5698 5702 5705 5708 5711 5715 5719 5723 5727 5731 5735 5738 5740 5745 5750 5754 5758 5761 5765 5768 5772 5775 5779 5782 5786 5789 5792 5795 5798 5800 5803 5805 5807 5809 5811 5813 5815 5818 5820 5822 5824 5826 5828 5830 5832 5834 5835 5837 5839 5841 5842 5844 5845 5847 5848 5849 5850 5852 5853 5854 5855 5856 5857 5858 5860 5861 5862
5629 5631 5632 5633 5635 5636 5637 5639 5643 5645 5649 5654 5660 5664 5667 5671 5675 5680 5684 5688 5692 5697 5701 5705 5708 5711 5715 5719 5723 5727 5732 5735 5738 5742 5747 5752 5755 5758 5761 5765 5768 5771 5775 5778 5782 5785 5788 5790 5793 5796 5798 5800 5802 5805 5807 5810 5812 5814 5816 5818 5820 5822 5824 5826 5828 5829 5831 5833 5834 5836 5838 5839 5841 5842 5843 5845 5846 5848 5849 5850 5850 5851 5852 5853 5855 5856 5857
5628 5631 5632 5634 5635 5635 5636 5638 5640 5642 5645 5651 5656 5661 5664 5668 5672 5677 5681 5684 5687 5691 5696 5700 5704 5708 5711 5715 5720 5724 5728 5732 5735 5739 5743 5747 5751 5755 5758 5761 5764 5767 5770 5773 5777 5780 5783 5786 5788 5791 5794 5796 5799 5801 5803 5806 5808 5810 5812 5814 5816 5818 5820 5822 5824 5825 5827 5828 5830 5832 5833 5835 5836 5838 5839 5841 5842 5843 5844 5845 5846 5847 5848 5849 5850 5851 5851
5627 5630 5632 5634 5635 5634 5635 5637 5638 5639 5642 5647 5652 5657 5661 5665 5669 5674 5677 5680 5683 5687 5692 5696 5699 5703 5707 5710 5715 5720 5723 5725 5729 5734 5739 5742 5746 5750 5753 5757 5759 5762 5765 5769 5772 5775 5778 5781 5784 5787 5789 5792 5794 5797 5799 5802 5804 5806 5808 5810 5812 5814 5816 5818 5820 5821 5823 5824 5826 5827 5829 5830 5832 5833 5834 5836 5837 5838 5839 5840 5841 5842 5843 5843 5844 5844 5845
5624 5627 5630 5633 5635 5635 5635 5636 5637 5637 5640 5644 5649 5653 5657 5661 5666 5670 5673 5676 5679 5684 5688 5691 5695 5699 5703 5706 5709 5713 5716 5719 5723 5729 5734 5737 5741 5744 5748 5752 5754 5757 5759 5762 5766 5770 5773 5776 5779 5782 5785 5787 5790 5793 5795 5797 5800 5802 5804 5806 5808 5810 5812 5813 5815 5817 5819 5820 5822 5823 5824 5826 5827 5828 5830 5831 5832 5834 5835 5836 5837 5837 5837 5838 5838 5838 5839
5622 5625 5627 5630 5633 5634 5635 5635 5636 5637 5639 5642 5646 5649 5653 5657 5662 5666 5669 5672 5675 5679 5683 5687 5691 5695 5699 5702 5705 5708 5712 5715 5718 5723 5728 5732 5735 5738 5742 5746 5749 5751 5752 5755 5760 5764 5768 5771 5774 5777 5780 5783 5785 5788 5791 5793 5795 5797 5799 5801 5802 5804 5806 5808 5810 5812 5814 5816 5817 5819 5820 5821 5822 5824 5825 5827 5828 5829 5831 5832 5832 5831 5831 5831 5831 5833 5835
5619 5622 5624 5626 5629 5632 5634 5635 5636 5636 5637 5640 5643 5645 5648 5652 5656 5660 5664 5668 5671 5674 5678 5682 5685 5688 5692 5696 5700 5704 5708 5711 5714 5718 5723 5726 5730 5733 5736 5740 5743 5746 5748 5751 5755 5759 5762 5766 5769 5772 5775 5778 5780 5783 5785 5788 5790 5792 5794 5795 5797 5799 5801 5803 5805 5807 5809 5811 5812 5814 5815 5816 5818 5819 5820 5821 5822 5824 5825 5826 5825 5824 5825 5826 5827 5829 5832
5616 5618 5620 5622 5625 5627 5630 5632 5634 5635 5636 5638 5640 5641 5644 5647 5651 5654 5658 5662 5666 5670 5674 5678 5680 5682 5685 5688 5692 5697 5701 5704 5708 5712 5716 5718 5722 5726 5730 5735 5738 5741 5744 5747 5750 5753 5757 5761 5764 5767 5770 5773 5775 5778 5780 5782 5785 5787 5788 5790 5792 5794 5796 5798 5800 5802 5804 5805 5807 5808 5809 5810 5812 5813 5814 5816 5817 5817 5819 5819 5818 5817 5820 5822 5823 5824 5827
5613 5614 5616 5618 5621 5623 5625 5627 5630 5632 5634 5636 5637 5639 5640 5643 5646 5649 5653 5656 5659 5663 5668 5672 5675 5678 5680 5683 5685 5689 5693 5697 5700 5705 5708 5710 5713 5718 5722 5727 5732 5736 5739 5742 5745 5748 5751 5755 5758 5762 5765 5767 5769 5772 5774 5776 5779 5781 5783 5784 5786 5788 5790 5792 5794 5796 5798 5799 5800 5802 5803 5804 5806 5807 5808 5810 5811 5811 5812 5813 5811 5811 5813 5816 5817 5819 5820
5611 5611 5612 5614 5616 5618 5620 5622 5625 5627 5629 5631 5634 5636 5638 5639 5641 5645 5648 5651 5653 5656 5660 5664 5667 5672 5676 5679 5681 5683 5686 5689 5692 5697 5701 5704 5707 5711 5715 5719 5724 5728 5731 5735 5738 5742 5745 5749 5752 5755 5758 5760 5763 5765 5768 5770 5773 5775 5777 5778 5780 5782 5784 5786 5788 5790 5792 5793 5794 5796 5797 5798 5799 5801 5802 5803 5804 5805 5806 5806 5806 5805 5806 5808 5810 5812 5813
5608 5609 5610 5611 5612 5614 5615 5617 5620 5622 5624 5625 5628 5631 5634 5635 5637 5639 5643 5645 5648 5651 5654 5657 5660 5663 5667 5671 5674 5677 5679 5682 5685 5688 5692 5696 5701 5705 5708 5712 5716 5720 5723 5727 5730 5734 5737 5741 5745 5748 5751 5754 5757 5759 5762 5764 5766 5768 5770 5772 5774 5776 5778 5780 5781 5783 5785 5786 5788 5789 5790 5791 5793 5794 5795 5796 5797 5798 5798 5799 5799 5800 5800 5801 5802 5803 5805
5604 5606 5607 5608 5610 5611 5611 5613 5615 5616 5618 5620 5621 5623 5627 5630 5632 5634 5636 5639 5642 5645 5648 5651 5654 5656 5659 5662 5666 5669 5673 5676 5678 5680 5683 5687 5692 5696 5700 5704 5708 5712 5716 5719 5723 5726 5729 5732 5736 5740 5744 5747 5750 5753 5755 5757 5759 5761 5763 5766 5768 5770 5772 5774 5775 5777 5778 5780 5781 5782 5783 5785 5786 5787 5788 5789 5790 5791 5792 5792 5793 5793 5793 5794 5794 5795 5796
5600 5601 5603 5605 5607 5608 5609 5610 5611 5612 5613 5614 5616 5617 5619 5622 5625 5627 5629 5632 5634 5638 5641 5645 5648 5651 5653 5656 5659 5662 5665 5668 5671 5673 5676 5680 5683 5687 5692 5696 5699 5703 5707 5711 5715 5719 5721 5724 5727 5731 5736 5739 5743 5746 5748 5751 5753 5754 5756 5759 5761 5763 5765 5767 5769 5770 5772 5773 5774 5775 5776 5777 5778 5780 5781 5782 5783 5784 5785 5785 5786 5786 5787 5787 5787 5788 5788
5598 5598 5599 5600 5602 5604 5605 5606 5607 5608 5609 5609 5610 5612 5614 5616 5618 5620 5622 5624 5627 5629 5633 5637 5641 5645 5648 5651 5654 5656 5658 5660 5663 5665 5668 5673 5677 5680 5684 5688 5692 5695 5698 5702 5706 5710 5713 5717 5720 5724 5728 5731 5735 5738 5741 5744 5746 5748 5750 5752 5754 5756 5758 5760 5762 5764 5765 5766 5767 5768 5769 5770 5771 5772 5774 5775 5776 5777 5777 5778 5779 5779 5780 5780 5780 5781 5781
5598 5598 5597 5597 5598 5599 5600 5601 5602 5603 5604 5604 5605 5607 5609 5610 5612 5614 5616 5618 5619 5622 5624 5628 5632 5637 5641 5644 5648 5650 5652 5655 5657 5659 5661 5665 5670 5674 5678 5681 5685 5688 5692 5695 5698 5701 5705 5710 5714 5717 5720 5723 5727 5730 5734 5737 5739 5741 5743 5745 5747 5749 5751 5753 5755 5756 5758 5759 5760 5761 5762 5763 5765 5766 5767 5768 5769 5770 5770 5771 5771 5772 5772 5773 5773 5773 5773
5598 5598 5597 5596 5596 5595 5596 5597 5598 5599 5599 5600 5601 5602 5604 5605 5607 5610 5611 5612 5613 5615 5617 5620 5623 5627 5631 5635 5639 5643 5646 5648 5651 5653 5656 5659 5662 5666 5670 5674 5678 5682 5686 5689 5692 5695 5698 5702 5706 5709 5712 5716 5719 5723 5726 5729 5732 5734 5736 5738 5739 5741 5743 5745 5747 5749 5750 5752 5753 5755 5756 5757 5758 5759 5760 5761 5762 5763 5764 5764 5764 5765 5765 5766 5766 5766 5766
5597 5596 5596 5596 5595 5594 5594 5594 5595 5596 5596 5596 5597 5597 5598 5600 5602 5605 5606 5607 5608 5609 5610 5612 5615 5618 5621 5624 5628 5632 5636 5640 5644 5647 5650 5653 5655 5658 5662 5666 5671 5675 5679 5683 5686 5689 5693 5696 5699 5703 5706 5709 5712 5715 5718 5721 5724 5726 5728 5730 5731 5733 5735 5737 5739 5741 5742 5744 5746 5747 5749 5750 5751 5753 5753 5754 5755 5756 5757 5757 5757 5758 5758 5758 5758 5758 5759
5595 5595 5595 5594 5594 5593 5592 5592 5593 5593 5594 5593 5593 5594 5594 5595 5597 5599 5600 5601 5603 5604 5605 5606 5608 5610 5612 5614 5617 5620 5625 5629 5634 5638 5642 5645 5649 5652 5655 5658 5663 5667 5672 5675 5679 5682 5686 5689 5693 5696 5699 5702 5704 5707 5710 5712 5715 5718 5720 5721 5724 5726 5728 5729 5731 5732 5734 5736 5738 5739 5741 5742 5743 5745 5746 5746 5747 5748 5749 5749 5749 5750 5750 5750 5750 5751 5751
5592 5592 5592 5592 5592 5591 5591 5590 5590 5591 5591 5591 5591 5591 5591 5592 5593 5594 5595 5597 5598 5599 5600 5602 5603 5604 5606 5607 5609 5611 5614 5618 5622 5627 5632 5636 5640 5644 5648 5652 5656 5660 5664 5668 5672 5676 5679 5682 5685 5688 5691 5694 5697 5699 5701 5704 5707 5709 5711 5713 5716 5718 5720 5721 5723 5725 5726 5728 5729 5731 5732 5733 5734 5735 5736 5737 5738 5739 5739 5740 5740 5741 5741 5741 5742 5742 5742
5590 5590 5589 5589 5589 5589 5589 5589 5588 5588 5588 5589 5589 5589 5590 5591 5591 5592 5592 5593 5594 5595 5596 5598 5599 5600 5600 5602 5603 5605 5607 5609 5612 5616 5620 5626 5630 5635 5640 5645 5649 5653 5656 5661 5665 5669 5672 5675 5677 5680 5683 5686 5689 5691 5694 5697 5699 5701 5703 5705 5707 5709 5711 5713 5715 5717 5719 5720 5721 5722 5723 5724 5725 5726 5727 5727 5728 5729 5730 5730 5731 5731 5732 5732 5732 5732 5732
5587 5587 5587 5586 5586 5586 5586 5586 5586 5586 5586 5586 5587 5588 5588 5589 5590 5590 5590 5591 5591 5591 5593 5594 5595 5596 5597 5597 5599 5600 5602 5603 5605 5607 5610 5614 5619 5625 5632 5637 5641 5645 5648 5652 5656 5659 5663 5666 5669 5671 5674 5677 5681 5684 5687 5689 5692 5693 5695 5696 5697 5700 5704 5707 5708 5709 5710 5712 5712 5713 5714 5715 5716 5717 5718 5719 5719 5720 5721 5721 5722 5722 5722 5723 5723 5723 5723
5584 5584 5584 5584 5583 5583 5583 5583 5584 5584 5584 5584 5585 5585 5586 5587 5588 5588 5589 5589 5589 5589 5590 5591 5592 5593 5594 5594 5595 5596 5597 5598 5600 5601 5603 5606 5610 5615 5622 5627 5631 5635 5639 5643 5646 5649 5652 5656 5659 5662 5666 5669 5672 5675 5678 5681 5683 5685 5686 5687 5688 5691 5694 5698 5700 5701 5702 5703 5704 5704 5706 5707 5708 5709 5710 5710 5711 5712 5712 5713 5713 5713 5713 5713 5713 5713 5714
5582 5581 5581 5581 5581 5581 5580 5580 5581 5581 5581 5582 5582 5583 5584 5585 5585 5586 5586 5587 5587 5588 5588 5589 5590 5590 5591 5592 5593 5593 5593 5594 5595 5596 5598 5600 5604 5608 5613 5617 5621 5626 5630 5633 5636 5639 5642 5645 5648 5653 5657 5660 5663 5666 5668 5671 5673 5675 5677 5678 5680 5682 5684 5686 5689 5691 5692 5694 5695 5696 5697 5698 5699 5700 5701 5702 5702 5703 5703 5703 5703 5703 5704 5704 5704 5704 5705
5579 5578 5578 5578 5578 5578 5578 5578 5578 5578 5578 5579 5580 5581 5581 5582 5582 5583 5583 5584 5585 5585 5586 5587 5587 5588 5588 5589 5590 5591 5591 5592 5593 5594 5595 5597 5600 5603 5607 5611 5614 5618 5622 5625 5629 5631 5633 5635 5639 5644 5647 5650 5652 5656 5658 5661 5663 5665 5666 5668 5671 5673 5674 5676 5678 5680 5681 5683 5685 5686 5687 5688 5690 5692 5692 5693 5693 5694 5695 5695 5696 5696 5696 5696 5696 5696 5696
5576 5576 5575 5575 5575 5575 5575 5575 5575 5575 5575 5576 5577 5578 5579 5579 5580 5580 5581 5582 5582 5583 5584 5584 5585 5586 5587 5587 5588 5589 5589 5590 5591 5593 5594 5595 5597 5600 5604 5607 5609 5613 5617 5621 5624 5626 5627 5629 5631 5634 5637 5639 5642 5645 5648 5650 5652 5654 5655 5657 5660 5663 5665 5667 5669 5671 5672 5673 5674 5676 5677 5678 5680 5682 5683 5684 5685 5686 5687 5688 5689 5689 5688 5688 5687 5687 5687
5572 5572 5572 5572 5572 5572 5572 5572 5572 5573 5573 5573 5574 5575 5576 5576 5577 5578 5579 5579 5580 5581 5581 5582 5583 5584 5585 5585 5586 5587 5587 5588 5590 5591 5592 5593 5595 5597 5600 5602 5604 5607 5611 5615 5618 5622 5624 5625 5625 5625 5627 5630 5633 5635 5637 5639 5642 5643 5645 5647 5650 5653 5655 5657 5660 5662 5663 5664 5666 5667 5667 5668 5669 5671 5673 5675 5676 5677 5678 5679 5680 5680 5679 5679 5678 5678 5679
5569 5569 5569 5569 5569 5569 5569 5569 5569 5569 5570 5571 5571 5571 5573 5573 5574 5575 5576 5577 5578 5578 5579 5580 5581 5581 5582 5583 5584 5584 5585 5586 5588 5589 5590 5591 5593 5595 5597 5599 5601 5602 5605 5608 5611 5614 5617 5619 5620 5621 5622 5625 5627 5628 5630 5631 5633 5635 5637 5638 5641 5643 5645 5648 5650 5652 5654 5656 5657 5658 5659 5659 5660 5661 5663 5665 5666 5667 5668 5668 5669 5670 5670 5670 5670 5670 5671